This demonstration page uses our WeatherBlox Daily Observations layout. Learn more.

38.89511, -77.03637

Hourly Observations for February 23, 2015

Temp ( °F °C ) Dew Point ( °F °C ) Humidity (%) Winds ( mph kmh ) Pressure ( in mb ) Visibility ( mi km ) Precip ( " mm )
12:52 am 00:52 Cloudy 40 4.4 29 -1.7 65 65 N 9 15 30.27 1025 10 16.0934 0 0
1:52 am 01:52 Cloudy 40 4.4 27 -2.8 60 60 N 8 13 30.26 1025 10 16.0934 0 0
2:52 am 02:52 Cloudy 39 3.9 26 -3.3 60 60 NNW 13 20 30.26 1025 10 16.0934 0 0
3:52 am 03:52 Cloudy 39 3.9 25 -3.9 57 57 N 14 22 30.25 1025 10 16.0934 0 0
4:52 am 04:52 Cloudy 38 3.3 24 -4.4 57 57 N 10 17 30.27 1025 10 16.0934 0 0
5:52 am 05:52 Cloudy 38 3.3 24 -4.4 57 57 NNW 12 19 30.27 1025 10 16.0934 0 0
6:52 am 06:52 Cloudy 37 2.8 21 -6.1 52 52 NNW 17 28 30.3 1026 10 16.0934 0 0
7:52 am 07:52 Cloudy 37 2.8 21 -6.1 52 52 NNW 16 26 30.33 1027 10 16.0934 0 0
8:52 am 08:52 Cloudy 33 0.6 15 -9.4 47 47 NNW 21 33 30.37 1028 10 16.0934 0 0
9:52 am 09:52 Cloudy 31 -0.6 12 -11.1 45 45 NNW 15 24 30.37 1028 10 16.0934 0 0
10:52 am 10:52 Cloudy 29 -1.7 10 -12.2 45 45 NNW 18 30 30.38 1029 10 16.0934 0 0
11:52 am 11:52 Mostly Cloudy 29 -1.7 8 -13.3 41 41 NNW 21 33 30.39 1029 10 16.0934 0 0
12:52 pm 12:52 Mostly Cloudy 30 -1.1 7 -13.9 38 38 NNW 16 26 30.37 1028 10 16.0934 0 0
1:52 pm 13:52 Mostly Cloudy 32 0 6 -14.4 33 33 NNW 18 30 30.35 1028 10 16.0934 0 0
2:52 pm 14:52 Mostly Cloudy 31 -0.6 6 -14.4 35 35 N 20 31 30.35 1028 10 16.0934 0 0
3:52 pm 15:52 Partly Cloudy 31 -0.6 4 -15.6 31 31 NNW 18 30 30.35 1028 10 16.0934 0 0
4:52 pm 16:52 Mostly Cloudy 30 -1.1 1 -17.2 29 29 NW 17 28 30.37 1028 10 16.0934 0 0
5:52 pm 17:52 Mostly Cloudy 28 -2.2 -1 -18.3 28 28 NNW 20 31 30.4 1029 10 16.0934 0 0
6:52 pm 18:52 Partly Cloudy 26 -3.3 -3 -19.4 28 28 NNW 14 22 30.42 1030 10 16.0934 0 0
7:52 pm 19:52 Partly Cloudy 25 -3.9 -2 -18.9 30 30 NNW 14 22 30.42 1030 10 16.0934 0 0
8:52 pm 20:52 Partly Cloudy 23 -5 -3 -19.4 32 32 NNW 13 20 30.43 1030 10 16.0934 0 0
9:52 pm 21:52 Mostly Clear 22 -5.6 -4 -20 31 31 NW 13 20 30.43 1031 10 16.0934 0 0
10:52 pm 22:52 Partly Cloudy 21 -6.1 -5 -20.6 31 31 NNW 7 11 30.43 1031 10 16.0934 0 0
11:52 pm 23:52 Partly Cloudy 19 -7.2 -6 -21.1 32 32 NNW 9 15 30.43 1031 10 16.0934 0 0

Powered by AerisWeather